Waarnemingen

Advertentie
Mijn weer
Karesuando A, Zweden (2081): temperatuur & dauwpunt: 12.02.2019 01:00:00 - 18.02.2019 01:00:00 (CET)Karesuando A, Zweden (2081): windsnelheid & windstoten: 12.02.2019 01:00:00 - 18.02.2019 01:00:00 (CET)Karesuando A, Zweden (2081): windrichting: 12.02.2019 01:00:00 - 18.02.2019 01:00:00 (CET)Karesuando A, Zweden (2081): luchtdruk: 12.02.2019 01:00:00 - 18.02.2019 01:00:00 (CET)Karesuando A, Zweden (2081): zicht: 12.02.2019 01:00:00 - 18.02.2019 01:00:00 (CET)Karesuando A, Zweden (2081): neerslag: 12.02.2019 01:00:00 - 18.02.2019 01:00:00 (CET)
Datum & Tijd tt [°C] td [°C] ff [km/u] ff [kn] fx [km/u] fx [kn] dd ppp [hPa] vv [km] rr [mm]
18.02.2019 01:00:00 -13,5 -15,2 10 5 15 8 O 1014,2 48 0,0
18.02.2019 00:00:00 -13,3 -15,2 6 4 15 8 ZO 1014,8 50 0,0
17.02.2019 23:00:00 -12,8 -14,9 11 6 15 8 O 1015,3 50 0,0
17.02.2019 22:00:00 -12,2 -14,5 10 5 13 7 O 1015,3 48 0,0
17.02.2019 21:00:00 -10,7 -13,2 3 2 6 3 OZO 1015,4 47 0,0
17.02.2019 20:00:00 -11,6 -14,3 4 2 14 8 ZZW 1015,7 40 0,0
17.02.2019 19:00:00 -11,5 -14,0 10 5 13 7 ZW 1015,8 50 0,0
17.02.2019 18:00:00 -11,9 -14,3 5 3 17 9 WZW 1016,1 46 0,0
17.02.2019 17:00:00 -10,9 -14,2 10 6 18 10 ZZW 1016,2 44 0,0
17.02.2019 16:00:00 -10,2 -14,3 13 7 21 12 WZW 1015,9 50 0,0
17.02.2019 15:00:00 -8,6 -14,0 8 5 15 8 ZW 1015,6 15 0,0
17.02.2019 14:00:00 -6,7 -13,6 7 4 17 9 WZW 1015,5 20 0,0
17.02.2019 13:00:00 -6,5 -14,7 8 5 13 7 W 1015,2 26 0,0
17.02.2019 12:00:00 -7,0 -13,7 11 6 21 11 NNW 1014,3 23 0,0
17.02.2019 11:00:00 -6,7 -13,0 14 8 22 12 NW 1013,2 19 0,0
17.02.2019 10:00:00 -6,8 -12,1 16 9 32 18 NW 1012,5 19 0,0
17.02.2019 09:00:00 -6,8 -10,3 13 7 37 20 WNW 1011,1 20 0,0
17.02.2019 08:00:00 -6,5 -10,3 16 9 25 13 WNW 1009,5 16 0,0
17.02.2019 07:00:00 -6,4 -9,6 16 9 33 18 NW 1007,7 16 0,0
17.02.2019 06:00:00 - - - - - - - - - -
17.02.2019 05:00:00 -5,4 -8,7 18 10 31 17 NW 1004,7 19 0,0
17.02.2019 04:00:00 -5,1 -8,1 15 8 27 14 NW 1003,0 17 0,0
17.02.2019 03:00:00 -4,2 -7,8 18 10 30 16 NNW 1000,9 22 0,0
17.02.2019 02:00:00 -4,2 -6,8 17 9 34 18 NW 998,7 21 0,0
17.02.2019 01:00:00 -4,0 -5,4 21 11 44 24 N 996,4 17 0,0
17.02.2019 00:00:00 -3,0 -4,0 28 15 59 32 N 994,1 8 0,1
16.02.2019 23:00:00 -1,7 -2,9 29 16 68 37 NNW 991,0 7 0,0
16.02.2019 22:00:00 -2,1 -2,7 32 17 78 42 NNW 987,7 6 0,0
16.02.2019 21:00:00 -0,2 -4,1 41 22 69 37 NNW 983,6 3,4 0,0
16.02.2019 20:00:00 0,9 -2,2 13 7 37 20 WNW 980,4 22 0,0
16.02.2019 19:00:00 0,5 -2,4 22 12 36 19 NW 978,0 20 0,0
16.02.2019 18:00:00 0,7 -0,3 19 10 42 23 NW 975,5 9 0,0
16.02.2019 17:00:00 0,9 -1,1 13 7 36 19 NW 973,7 19 0,0
16.02.2019 16:00:00 1,0 -2,2 16 9 40 22 W 972,9 20 0,0
16.02.2019 15:00:00 1,4 -3,3 23 12 37 20 ZW 972,7 20 0,0
16.02.2019 14:00:00 1,5 -4,3 18 10 61 33 ZW 973,7 24 0,0
16.02.2019 13:00:00 1,3 -4,7 28 15 61 33 ZZW 974,7 22 0,0
16.02.2019 12:00:00 1,4 -4,2 38 20 67 36 ZW 975,9 14 0,0
16.02.2019 11:00:00 1,4 -3,7 21 11 38 21 ZZW 978,3 21 0,0
16.02.2019 10:00:00 1,2 -3,8 22 12 44 24 ZZW 979,6 15 0,0
16.02.2019 09:00:00 -1,2 -2,8 14 8 45 24 Z 981,2 28 0,0
16.02.2019 08:00:00 -1,0 -2,5 15 8 39 21 Z 982,7 37 0,0
16.02.2019 07:00:00 -1,5 -3,2 17 9 36 19 Z 984,4 29 0,0
16.02.2019 06:00:00 -3,3 -5,5 14 8 34 19 ZO 987,4 31 0,0
16.02.2019 05:00:00 -4,2 -6,2 11 6 32 17 ZO 990,7 32 0,0
16.02.2019 04:00:00 -5,0 -6,1 9 5 29 16 ZO 993,2 4,0 0,2
16.02.2019 03:00:00 -5,5 -6,3 16 8 32 18 O 995,4 1,9 0,4
16.02.2019 02:00:00 -6,2 -7,0 10 6 19 11 OZO 998,5 2,4 0,2
16.02.2019 01:00:00 -6,3 -7,4 12 6 23 12 O 1000,8 7 0,1
16.02.2019 00:00:00 -4,6 -6,3 7 4 17 9 ZO 1003,1 6 0,0
15.02.2019 23:00:00 -6,9 -8,4 5 3 10 6 O 1004,5 9 0,0
15.02.2019 22:00:00 -6,1 -8,0 5 3 16 9 OZO 1005,2 35 0,0
15.02.2019 21:00:00 -6,9 -8,3 8 5 14 7 O 1005,7 22 0,0
15.02.2019 20:00:00 -7,7 -8,7 4 2 16 8 ZW 1006,0 19 0,0
15.02.2019 19:00:00 -6,3 -8,1 10 5 18 10 ZZW 1005,9 15 0,0
15.02.2019 18:00:00 -4,0 -7,0 11 6 21 11 W 1005,6 14 0,0
15.02.2019 17:00:00 -4,5 -7,4 5 3 22 12 NO 1005,3 18 0,0
15.02.2019 16:00:00 -3,2 -6,9 8 5 28 15 WNW 1004,5 17 0,0
15.02.2019 15:00:00 -2,0 -6,2 12 7 39 21 NW 1003,6 15 0,0
15.02.2019 14:00:00 -1,4 -5,4 21 11 37 20 WNW 1002,0 11 0,0
15.02.2019 13:00:00 0,4 -4,1 13 7 30 16 WNW 1000,9 17 0,0
15.02.2019 12:00:00 0,8 -2,3 16 8 32 17 WNW 999,9 20 0,0
15.02.2019 11:00:00 0,7 -2,3 15 8 29 15 W 998,9 44 0,0
15.02.2019 10:00:00 -0,1 -3,6 8 5 24 13 WNW 997,6 50 0,0
15.02.2019 09:00:00 0,0 -3,0 15 8 31 17 W 996,2 50 0,0
15.02.2019 08:00:00 1,0 -2,6 20 11 31 17 WNW 994,2 50 0,0
15.02.2019 07:00:00 1,3 -2,1 19 11 35 19 WNW 991,8 50 0,0
15.02.2019 06:00:00 0,9 -1,8 30 16 42 23 W 989,8 50 0,0
15.02.2019 05:00:00 0,3 -2,2 30 16 40 22 W 988,5 50 0,0
15.02.2019 04:00:00 0,5 -2,4 22 12 41 22 WZW 987,5 50 0,0
15.02.2019 03:00:00 0,3 -2,8 15 8 36 19 WZW 987,0 50 0,0
15.02.2019 02:00:00 0,6 -2,5 23 12 48 26 WZW 986,5 50 0,0
15.02.2019 01:00:00 0,8 -2,1 32 18 60 32 WZW 986,0 50 0,0
15.02.2019 00:00:00 1,0 -1,5 36 20 58 32 WZW 984,7 46 0,0
14.02.2019 23:00:00 1,0 -1,4 35 19 63 34 WZW 983,7 50 0,0
14.02.2019 22:00:00 1,0 -0,8 43 23 68 37 WZW 981,8 14 0,0
14.02.2019 21:00:00 1,3 -0,3 41 22 63 34 WZW 982,0 40 0,0
14.02.2019 20:00:00 1,0 -0,4 29 16 46 25 WZW 982,0 33 0,0
14.02.2019 19:00:00 -2,5 -3,5 17 9 33 18 WZW 982,5 50 0,0
14.02.2019 18:00:00 -2,3 -3,3 24 13 40 21 ZW 982,7 21 0,0
14.02.2019 17:00:00 -4,0 -4,7 15 8 29 15 ZZW 984,0 16 0,0
14.02.2019 16:00:00 -5,4 -6,1 14 8 40 22 ZZW 985,8 - 0,0
14.02.2019 15:00:00 -5,2 -6,1 16 9 31 17 ZZW 987,7 19 0,0
14.02.2019 14:00:00 -6,4 -8,0 15 8 32 17 Z 989,7 30 0,0
14.02.2019 13:00:00 -6,9 -8,4 10 5 34 19 Z 992,3 6 0,3
14.02.2019 12:00:00 -8,9 -10,0 4 2 24 13 ZO 993,7 1,1 1,5
14.02.2019 11:00:00 -9,7 -10,8 9 5 23 13 O 995,8 0,7 0,8
14.02.2019 10:00:00 -10,7 -11,9 12 6 24 13 O 998,4 3,5 0,1
14.02.2019 09:00:00 -12,6 -13,9 9 5 19 10 O 1001,5 43 0,0
14.02.2019 08:00:00 -14,5 -16,1 12 6 19 11 O 1004,4 25 0,0
14.02.2019 07:00:00 -15,8 -17,3 12 6 18 10 O 1006,4 50 0,0
14.02.2019 06:00:00 -16,6 -18,0 10 5 14 7 O 1007,9 50 0,0
14.02.2019 05:00:00 -16,5 -18,1 10 6 14 8 O 1007,8 37 0,0
14.02.2019 04:00:00 -15,7 -17,7 4 2 11 6 OZO 1008,7 50 0,0
14.02.2019 03:00:00 -13,8 -15,5 2 1 16 8 O 1008,9 50 0,0
14.02.2019 02:00:00 -12,1 -13,1 13 7 22 12 ZZW 1008,9 28 0,0
14.02.2019 01:00:00 -12,7 -14,1 7 4 14 8 ZZW 1008,8 50 0,0
14.02.2019 00:00:00 -11,3 -12,5 7 4 16 9 Z 1008,8 50 0,0
13.02.2019 23:00:00 -9,3 -10,6 4 2 11 6 Z 1008,3 50 0,0
13.02.2019 22:00:00 -7,6 -8,8 4 2 11 6 Z 1008,3 45 0,0
13.02.2019 21:00:00 -7,3 -8,3 4 2 11 6 ZZO 1008,1 30 0,1
13.02.2019 20:00:00 - - - - - - - - - -
13.02.2019 19:00:00 -6,9 -7,8 3 2 8 4 ZO 1006,6 7 0,0
13.02.2019 18:00:00 -6,7 -7,5 5 3 10 5 ZO 1006,0 4,3 0,3
13.02.2019 17:00:00 -6,5 -7,1 2 1 9 5 ZO 1005,3 12 0,0
13.02.2019 16:00:00 -6,4 -7,0 7 4 17 9 OZO 1004,2 - 0,0
13.02.2019 15:00:00 -6,5 -7,0 7 4 16 8 OZO 1003,6 22 0,0
13.02.2019 14:00:00 -6,2 -6,9 7 4 19 10 ZO 1002,7 17 0,0
13.02.2019 13:00:00 -6,1 -6,7 7 4 18 10 ZO 1002,2 26 0,0
13.02.2019 12:00:00 -6,7 -7,4 6 4 16 9 OZO 1001,9 12 0,0
13.02.2019 11:00:00 -7,4 -8,0 8 4 14 7 O 1001,7 18 0,0
13.02.2019 10:00:00 -7,7 -8,5 3 1 18 10 O 1001,5 35 0,0
13.02.2019 09:00:00 -8,7 -9,3 6 4 21 11 OZO 1001,0 6 0,0
13.02.2019 08:00:00 -8,6 -9,4 5 3 11 6 N 1000,7 23 0,0
13.02.2019 07:00:00 -8,9 -9,6 5 3 15 8 O 1000,6 48 0,0
13.02.2019 06:00:00 -9,2 -9,9 10 6 16 9 O 1000,5 0,8 0,0
13.02.2019 05:00:00 -10,2 -11,3 3 1 7 4 O 1000,6 50 0,0
13.02.2019 04:00:00 -11,0 -12,4 3 1 7 4 OZO 1000,7 50 0,0
13.02.2019 03:00:00 -11,7 -13,0 3 2 6 3 N 1000,9 50 0,0
13.02.2019 02:00:00 -12,9 -14,6 3 2 7 4 W 1001,1 50 0,0
13.02.2019 01:00:00 -11,7 -12,9 5 3 10 6 W 1001,1 32 0,1
13.02.2019 00:00:00 -12,2 -13,5 5 3 14 7 O 1001,2 37 0,0
12.02.2019 23:00:00 -14,0 -15,4 5 3 8 4 NNW 1001,6 50 0,0
12.02.2019 22:00:00 -17,0 -18,6 4 2 7 4 WNW 1002,0 50 0,0
12.02.2019 21:00:00 -19,8 -21,9 4 2 11 6 WZW 1002,0 50 0,0
12.02.2019 20:00:00 -18,2 -19,8 6 4 10 5 ZZW 1001,6 26 0,0
12.02.2019 19:00:00 -17,9 -19,9 3 2 9 5 N 1001,5 50 0,0
12.02.2019 18:00:00 -17,3 -20,0 4 2 9 5 WNW 1001,2 50 0,0
12.02.2019 17:00:00 -15,3 -17,4 3 2 7 4 W 1000,8 24 0,0
12.02.2019 16:00:00 -12,4 -13,3 4 2 8 5 WNW 1000,1 37 0,0
12.02.2019 15:00:00 -11,4 -12,2 5 3 9 5 WNW 999,4 15 0,0
12.02.2019 14:00:00 -10,9 -12,8 7 4 9 5 NNW 998,6 49 0,0
12.02.2019 13:00:00 -4,4 -7,3 6 4 8 5 W 997,3 36 0,0
12.02.2019 12:00:00 -5,7 -7,7 6 3 10 5 ZW 996,8 36 0,0
12.02.2019 11:00:00 -3,8 -5,6 9 5 18 10 W 996,2 47 0,0
12.02.2019 10:00:00 -5,4 -7,4 9 5 20 11 ZW 996,0 50 0,0
12.02.2019 09:00:00 -6,2 -7,3 11 6 17 9 WZW 995,7 28 0,0
12.02.2019 08:00:00 -9,9 -11,5 9 5 18 10 ZZW 996,0 48 0,0
12.02.2019 07:00:00 -8,5 -9,5 14 8 20 11 ZZW 995,7 50 0,0
12.02.2019 06:00:00 -11,5 -12,9 11 6 19 11 ZZW 996,0 50 0,0
12.02.2019 05:00:00 -11,7 -13,2 13 7 23 12 ZZW 996,0 50 0,0
12.02.2019 04:00:00 -10,8 -12,4 13 7 19 11 ZW 995,6 46 0,0
12.02.2019 03:00:00 -11,8 -13,3 11 6 16 8 ZZW 995,6 50 0,0
12.02.2019 02:00:00 -11,0 -12,6 11 6 18 10 ZZW 995,3 50 0,0
12.02.2019 01:00:00 -10,1 -12,0 10 5 20 11 ZW 995,1 50 0,0

tt = temperatuur
td = dauwpunt
ff = windsnelheid
fx = windstoten
dd = windrichting
ppp = luchtdruk
vv = zicht
rr = neerslag

Weerstations in de omgeving